User: anonymous
Location: Unspecified
(0.0000°N, 0.0000°E)
Time: 15:27:32
(UTC+00:00)
Language:

USA 229 - Orbit

View from above orbital plane
View from above orbital plane
View from above satellite
View from above satellite

Ground track
Ground track

The orbit data is extracted from the following two-line orbital elements,

1 37386U 11014A   14237.14189311 0.00000000  00000-0  00000-0 0    02
2 37386  63.4395 109.0436 0024004 163.5781 196.4219 13.40652370    06
Epoch (UTC): 25 August 2014 03:24:19
Eccentricity: 0.0024004
inclination: 63.4395°
perigee height: 1089 km
apogee height: 1125 km
right ascension of ascending node: 109.0436°
argument of perigee: 163.5781°
revolutions per day: 13.40652370
mean anomaly at epoch: 196.4219°
orbit number at epoch: 0

The dashed part of the orbit path shows where the satellite is in the earth's shadow,  

DLR